Location: ?????????
(44.2517°N, 135.2292°E)
Time: 02:39:01
(UTC+00:00)

Cosmos 1153 Rocket - Pass Details

Date: 19 May 2025
Orbit: 952 x 1007 km, 82.9° (Epoch: 14 June)

Event Time Altitude Azimuth Distance (km) Brightness Sun altitude
Rises 15:11:56 0° 349° (N) 3,689 8.7 -25.7°
Reaches altitude 10° 15:14:29 10° 347° (NNW) 2,729 7.8 -25.7°
Maximum altitude 15:20:40 69° 266° (W) 1,031 4.5 -25.6°
Enters shadow 15:21:40 59° 216° (SW) 1,108 4.4 -25.6°
